Torna al catalogo

STARLINK-4106

AttivoComunicazioniVLEO
NORAD 53145·PAYLOAD·🇺🇸 United States

Lanciato Jul 17, 2022 da Cape Canaveral Space Force Station

Loading…

Prossimi Passaggi (prossime 24 ore)

TLE

AggiornatoSource: CelesTrak SupGP

Epoca: Sep 15, 2026, 01:34 UTC

1 53145C 22083P   26258.06576389 -.00032331  00000+0 -10400-2 0  2588
2 53145  53.1597  32.2258 0001196  76.8261 156.2335 15.31707779    12

Traccia STARLINK-4106 in tempo reale con AllMySat

Download on the App Store